TimeEDT,TemperatureF,Dew PointF,Humidity,Sea Level PressureIn,VisibilityMPH,Wind Direction,Wind SpeedMPH,Gust SpeedMPH,PrecipitationIn,Events,Conditions,WindDirDegrees,DateUTC
12:15 AM,57.6,48.2,71,29.96,10.0,ENE,3.5,-,N/A,,Clear,60,2013-09-26 04:15:00
12:35 AM,54.9,47.8,77,29.96,10.0,Calm,Calm,-,N/A,,Clear,0,2013-09-26 04:35:00
12:55 AM,52.3,47.8,85,29.97,10.0,Calm,Calm,-,N/A,,Clear,0,2013-09-26 04:55:00
1:15 AM,51.8,47.5,85,29.97,10.0,NE,3.5,-,N/A,,Clear,40,2013-09-26 05:15:00
1:35 AM,51.6,47.5,86,29.97,10.0,Calm,Calm,-,N/A,,Clear,0,2013-09-26 05:35:00
1:55 AM,50.5,46.4,86,29.97,10.0,Calm,Calm,-,N/A,,Clear,0,2013-09-26 05:55:00
2:15 AM,49.5,45.5,86,29.97,10.0,Calm,Calm,-,N/A,,Clear,0,2013-09-26 06:15:00
2:35 AM,48.4,44.8,87,29.97,10.0,Calm,Calm,-,N/A,,Clear,0,2013-09-26 06:35:00
2:55 AM,47.8,44.6,89,29.97,10.0,Calm,Calm,-,N/A,,Clear,0,2013-09-26 06:55:00
3:15 AM,47.3,43.9,88,29.97,10.0,East,3.5,-,N/A,,Clear,80,2013-09-26 07:15:00
3:35 AM,46.8,43.7,89,29.97,10.0,Calm,Calm,-,N/A,,Clear,0,2013-09-26 07:35:00
3:55 AM,46.4,43.5,90,29.97,7.0,Calm,Calm,-,N/A,,Clear,0,2013-09-26 07:55:00
4:15 AM,46.6,43.7,90,29.98,7.0,Calm,Calm,-,N/A,,Clear,0,2013-09-26 08:15:00
4:35 AM,46.6,43.5,89,29.98,5.0,Calm,Calm,-,N/A,,Clear,0,2013-09-26 08:35:00
4:55 AM,46.4,43.3,89,29.99,7.0,Calm,Calm,-,N/A,,Clear,0,2013-09-26 08:55:00
5:15 AM,46.4,43.7,90,29.99,4.0,Calm,Calm,-,N/A,,Clear,0,2013-09-26 09:15:00
5:35 AM,46.4,43.7,90,29.99,4.0,Calm,Calm,-,N/A,,Clear,0,2013-09-26 09:35:00
5:55 AM,45.5,42.6,90,30.00,4.0,Calm,Calm,-,N/A,,Clear,0,2013-09-26 09:55:00
6:15 AM,45.7,43.0,90,30.01,4.0,Calm,Calm,-,N/A,,Clear,0,2013-09-26 10:15:00
6:35 AM,44.8,42.1,90,30.02,3.0,Calm,Calm,-,N/A,,Clear,0,2013-09-26 10:35:00
6:55 AM,44.6,41.9,90,30.03,2.0,Calm,Calm,-,N/A,,Clear,0,2013-09-26 10:55:00
7:15 AM,44.4,41.7,90,30.03,3.0,Calm,Calm,-,N/A,,Clear,0,2013-09-26 11:15:00
7:35 AM,44.1,41.4,90,30.04,3.0,Calm,Calm,-,N/A,,Clear,0,2013-09-26 11:35:00
7:55 AM,45.5,43.0,91,30.04,1.0,NE,3.5,-,N/A,,Mist,40,2013-09-26 11:55:00
8:15 AM,47.3,44.6,90,30.04,1.2,Calm,Calm,-,N/A,,Mist,0,2013-09-26 12:15:00
8:35 AM,50.0,47.5,91,30.05,1.5,Calm,Calm,-,N/A,,Mist,0,2013-09-26 12:35:00
8:55 AM,52.7,50.0,91,30.06,2.0,Calm,Calm,-,N/A,,Clear,0,2013-09-26 12:55:00
9:15 AM,55.0,52.3,91,30.06,3.0,Calm,Calm,-,N/A,,Clear,0,2013-09-26 13:15:00
9:35 AM,57.2,54.1,89,30.06,3.0,Calm,Calm,-,N/A,,Clear,0,2013-09-26 13:35:00
9:55 AM,58.6,54.1,85,30.07,4.0,Calm,Calm,-,N/A,,Haze,0,2013-09-26 13:55:00
10:15 AM,61.0,54.3,79,30.08,5.0,Calm,Calm,-,N/A,,Haze,0,2013-09-26 14:15:00
10:35 AM,63.1,54.7,74,30.08,7.0,Calm,Calm,-,N/A,,Clear,0,2013-09-26 14:35:00
10:55 AM,65.3,53.6,66,30.08,7.0,NNE,3.5,-,N/A,,Clear,30,2013-09-26 14:55:00
11:15 AM,68.0,52.7,58,30.08,4.0,ENE,3.5,-,N/A,,Haze,70,2013-09-26 15:15:00
11:35 AM,69.8,50.9,51,30.08,7.0,East,3.5,-,N/A,,Clear,80,2013-09-26 15:35:00
11:55 AM,70.7,48.6,45,30.08,10.0,ENE,4.6,-,N/A,,Clear,60,2013-09-26 15:55:00
12:15 PM,71.6,47.7,43,30.08,10.0,ENE,6.9,-,N/A,,Clear,70,2013-09-26 16:15:00
12:35 PM,72.1,48.6,43,30.08,10.0,NE,6.9,-,N/A,,Clear,50,2013-09-26 16:35:00
12:55 PM,72.9,49.3,43,30.08,10.0,East,8.1,-,N/A,,Clear,90,2013-09-26 16:55:00
1:15 PM,73.2,49.3,43,30.07,10.0,ESE,5.8,-,N/A,,Clear,120,2013-09-26 17:15:00
1:35 PM,73.6,50.0,43,30.06,10.0,East,3.5,-,N/A,,Clear,100,2013-09-26 17:35:00
1:55 PM,74.3,49.5,41,30.06,10.0,East,8.1,-,N/A,,Clear,90,2013-09-26 17:55:00
2:15 PM,75.0,50.0,41,30.06,10.0,ENE,5.8,-,N/A,,Clear,70,2013-09-26 18:15:00
2:35 PM,75.7,49.1,39,30.05,10.0,SSE,4.6,-,N/A,,Clear,150,2013-09-26 18:35:00
2:55 PM,76.5,48.9,38,30.05,10.0,East,4.6,-,N/A,,Clear,90,2013-09-26 18:55:00
3:15 PM,77.2,48.6,36,30.05,10.0,East,6.9,-,N/A,,Clear,90,2013-09-26 19:15:00
3:35 PM,77.4,48.6,36,30.05,10.0,East,5.8,-,N/A,,Clear,100,2013-09-26 19:35:00
3:55 PM,77.5,47.5,35,30.04,10.0,ESE,4.6,-,N/A,,Clear,120,2013-09-26 19:55:00
4:15 PM,77.9,47.7,34,30.04,10.0,SE,3.5,-,N/A,,Clear,130,2013-09-26 20:15:00
4:35 PM,78.1,49.1,36,30.04,10.0,Calm,Calm,-,N/A,,Clear,0,2013-09-26 20:35:00
4:55 PM,78.4,48.0,34,30.04,10.0,East,3.5,-,N/A,,Clear,80,2013-09-26 20:55:00
5:15 PM,78.3,47.5,34,30.04,10.0,ESE,4.6,-,N/A,,Clear,110,2013-09-26 21:15:00
5:35 PM,77.9,48.2,35,30.04,10.0,East,3.5,-,N/A,,Clear,100,2013-09-26 21:35:00
5:55 PM,78.1,48.6,35,30.04,10.0,ESE,3.5,-,N/A,,Clear,110,2013-09-26 21:55:00
6:15 PM,77.9,48.2,35,30.05,10.0,Calm,Calm,-,N/A,,Clear,0,2013-09-26 22:15:00
6:35 PM,77.0,49.1,37,30.05,10.0,NE,3.5,-,N/A,,Clear,40,2013-09-26 22:35:00
6:55 PM,75.6,49.5,40,30.05,10.0,NE,3.5,-,N/A,,Clear,50,2013-09-26 22:55:00
7:15 PM,72.5,50.7,46,30.05,10.0,NE,3.5,-,N/A,,Clear,50,2013-09-26 23:15:00
7:35 PM,65.3,54.5,68,30.06,10.0,NNE,3.5,-,N/A,,Clear,20,2013-09-26 23:35:00
7:55 PM,61.9,54.1,76,30.06,10.0,NNE,3.5,-,N/A,,Clear,20,2013-09-26 23:55:00
8:15 PM,60.8,53.8,78,30.06,10.0,North,3.5,-,N/A,,Clear,10,2013-09-27 00:15:00
8:35 PM,59.0,53.4,82,30.07,10.0,NNE,3.5,-,N/A,,Clear,30,2013-09-27 00:35:00
8:55 PM,59.7,52.9,78,30.07,10.0,NE,4.6,-,N/A,,Clear,40,2013-09-27 00:55:00
9:15 PM,62.4,52.0,69,30.08,10.0,ENE,4.6,-,N/A,,Clear,60,2013-09-27 01:15:00
9:35 PM,65.1,50.5,59,30.08,10.0,ENE,4.6,-,N/A,,Clear,60,2013-09-27 01:35:00
9:55 PM,64.8,50.0,59,30.08,10.0,ENE,4.6,-,N/A,,Clear,60,2013-09-27 01:55:00
10:15 PM,64.8,49.1,57,30.08,10.0,ENE,3.5,-,N/A,,Clear,70,2013-09-27 02:15:00
10:35 PM,61.3,49.3,65,30.09,10.0,Calm,Calm,-,N/A,,Clear,0,2013-09-27 02:35:00
10:55 PM,55.9,50.2,81,30.09,10.0,Calm,Calm,-,N/A,,Clear,0,2013-09-27 02:55:00
11:15 PM,54.3,50.2,86,30.10,10.0,East,3.5,-,N/A,,Clear,90,2013-09-27 03:15:00
11:35 PM,53.4,49.1,85,30.10,10.0,Calm,Calm,-,N/A,,Clear,0,2013-09-27 03:35:00
11:55 PM,52.7,48.9,87,30.10,10.0,Calm,Calm,-,N/A,,Clear,0,2013-09-27 03:55:00